AW706 Weather Reports


time (UTC)temp
F
wind
direction
speed
knots
gust
knots
rain 1hr
in
rain 24hr
in
rain mn
in
humidity
%
barometer
mb
20260504194757 65 169 4.3 10.4 0.00 0.00 0.00 54 1007.1
20260504194258 65 189 3.5 7.8 0.00 0.00 0.00 53 1007.2
20260504194019 65 166 4.3 11.3 0.00 0.00 0.00 53 1007.2
20260504193258 65 178 6.1 11.3 0.00 0.00 0.00 52 1007.2
20260504192758 65 187 5.2 10.4 0.00 0.00 0.00 52 1007.2
20260504192258 65 174 5.2 10.4 0.00 0.00 0.00 51 1007.3
20260504191759 65 162 6.1 12.2 0.00 0.00 0.00 51 1007.3
20260504191736 66 177 5.2 12.2 0.00 0.00 0.00 51 1007.3
20260504190756 67 177 3.5 11.3 0.00 0.00 0.00 48 1007.3
20260504190255 67 170 3.5 11.3 0.00 0.00 0.00 48 1007.4
20260504185756 67 176 3.5 9.6 0.00 0.00 0.00 48 1007.4
20260504185256 67 182 4.3 9.6 0.00 0.00 0.00 49 1007.4
20260504184755 67 166 3.5 8.7 0.00 0.00 0.00 50 1007.5
20260504184256 68 172 3.5 7.0 0.00 0.00 0.00 48 1007.6
20260504183755 67 194 3.5 7.8 0.00 0.00 0.00 48 1007.7
20260504183255 67 196 4.3 7.8 0.00 0.00 0.00 46 1007.7
20260504182756 68 179 3.5 7.8 0.00 0.00 0.00 47 1007.7
20260504182256 67 172 4.3 9.6 0.00 0.00 0.00 46 1007.6
20260504181757 67 172 4.3 10.4 0.00 0.00 0.00 46 1007.6
20260504181256 67 176 4.3 10.4 0.00 0.00 0.00 47 1007.6
20260504181015 67 179 4.3 9.6 0.00 0.00 0.00 45 1007.7
20260504180257 67 176 4.3 9.6 0.00 0.00 0.00 43 1007.7
20260504175754 67 169 4.3 9.6 0.00 0.00 0.00 44 1007.6
20260504175254 67 176 4.3 9.6 0.00 0.00 0.00 42 1007.7
20260504174754 67 188 4.3 9.6 0.00 0.00 0.00 44 1007.7
20260504174516 67 144 3.5 10.4 0.00 0.00 0.00 44 1007.7
20260504173754 67 201 3.5 10.4 0.00 0.00 0.00 45 1007.8
20260504173254 67 210 3.5 9.6 0.00 0.00 0.00 44 1007.9
20260504173015 67 179 3.5 9.6 0.00 0.00 0.00 45 1007.9
20260504172254 67 180 3.5 10.4 0.00 0.00 0.00 44 1008.0
20260504171754 66 194 3.5 10.4 0.00 0.00 0.00 45 1008.1
20260504171254 66 196 4.3 8.7 0.00 0.00 0.00 44 1008.0
20260504171015 66 191 4.3 9.6 0.00 0.00 0.00 43 1008.2
20260504170254 66 176 3.5 9.6 0.00 0.00 0.00 44 1008.3
20260504160249 66 227 3.5 11.3 0.00 0.00 0.00 39 1008.9
20260504151010 65 268 3.5 7.8 0.00 0.00 0.00 40 1009.4
20260504150247 66 269 3.5 7.8 0.00 0.00 0.00 40 1009.6
20260504141242 63 287 3.5 8.7 0.00 0.00 0.00 43 1009.6
20260504140741 63 219 3.5 7.8 0.00 0.00 0.00 44 1009.6
20260504140241 64 270 3.5 7.8 0.00 0.00 0.00 43 1009.6
20260504130740 60 130 2.6 7.8 0.00 0.00 0.00 50 1010.0
20260504130239 60 177 2.6 7.8 0.00 0.00 0.00 50 1010.0
20260504120240 55 177 2.6 6.1 0.00 0.00 0.00 57 1010.2
20260504110239 51 189 1.7 4.3 0.00 0.00 0.00 59 1010.2
20260504100229 48 202 1.7 3.5 0.00 0.00 0.00 61 1010.0
20260504081719 50 255 1.7 4.3 0.00 0.00 0.00 52 1009.3
20260504081220 50 233 0.9 2.6 0.00 0.00 0.00 53 1009.4
20260504080719 50 314 0.9 4.3 0.00 0.00 0.00 53 1009.3
20260504080220 50 174 1.7 6.1 0.00 0.00 0.00 52 1009.2
20260504070221 50 227 0.9 3.5 0.00 0.00 0.00 53 1008.8
20260504060211 49 200 0.0 1.7 0.00 0.00 0.00 62 1008.9
20260504050708 49 181 0.9 2.6 0.00 0.00 0.00 60 1008.6
20260504050425 49 186 0.9 1.7 0.00 0.00 0.00 60 1008.6
20260504045708 49 214 0.9 1.7 0.00 0.00 0.00 60 1008.6
20260504045207 50 218 0.9 2.6 0.00 0.00 0.00 60 1008.6
20260504044708 49 215 0.9 2.6 0.00 0.00 0.00 60 1008.6
20260504044209 49 150 0.9 2.6 0.00 0.00 0.00 60 1008.5
20260504043708 49 192 0.9 2.6 0.00 0.00 0.00 61 1008.5
20260504043209 49 174 0.9 1.7 0.00 0.00 0.00 61 1008.5
20260504042708 48 199 0.0 1.7 0.00 0.00 0.00 62 1008.5
20260504042209 48 242 0.9 1.7 0.00 0.00 0.00 62 1008.5
20260504041708 48 0 0.9 1.7 0.00 0.00 0.00 61 1008.4
20260504041205 48 213 0.0 1.7 0.00 0.00 0.00 60 1008.4
20260504040706 48 196 0.0 0.9 0.00 0.00 0.00 60 1008.4
20260504040205 48 191 0.0 1.7 0.00 0.00 0.00 59 1008.4
20260504035707 48 0 0.0 1.7 0.00 0.00 0.00 59 1008.4
20260504035205 47 0 0.9 1.7 0.00 0.00 0.00 59 1008.4
20260504034703 47 251 0.9 1.7 0.00 0.00 0.00 60 1008.3
20260504034203 46 0 0.9 1.7 0.00 0.00 0.00 60 1008.3
20260504033703 46 235 0.0 0.9 0.00 0.00 0.00 64 1008.3
20260504033203 46 0 0.0 0.9 0.00 0.00 0.00 64 1008.2
20260504032924 46 0 0.0 0.9 0.00 0.00 0.00 64 1008.2
20260504032422 46 0 0.0 0.9 0.00 0.00 0.00 63 1008.2
20260504031703 46 0 0.0 0.9 0.00 0.00 0.00 61 1008.3
20260504031203 47 0 0.0 0.9 0.00 0.00 0.00 61 1008.3
20260504031151 47 356 0.0 0.9 0.00 0.00 0.00 58 1008.2
20260504030203 47 0 0.0 1.7 0.00 0.00 0.00 59 1008.3
20260504025704 48 0 0.0 1.7 0.00 0.00 0.00 59 1008.3
20260504025422 48 197 0.0 0.9 0.00 0.00 0.00 57 1008.2
20260504024700 49 348 0.0 0.9 0.00 0.00 0.00 56 1008.2
20260504024200 49 0 0.0 0.9 0.00 0.00 0.00 54 1008.2
20260504023701 49 0 0.0 0.9 0.00 0.00 0.00 52 1008.3
20260504023158 50 0 0.0 1.7 0.00 0.00 0.00 54 1008.4
20260504022657 51 0 0.0 1.7 0.00 0.00 0.00 49 1008.3
20260504022418 51 235 0.0 1.7 0.00 0.00 0.00 51 1008.3
20260504021658 51 0 0.0 2.6 0.00 0.00 0.00 48 1008.3
20260504021157 52 306 0.9 2.6 0.00 0.00 0.00 47 1008.3
20260504020158 52 212 1.7 2.6 0.00 0.00 0.00 44 1008.3
20260504015658 52 233 0.9 2.6 0.00 0.00 0.00 44 1008.2
20260504015158 52 216 0.9 1.7 0.00 0.00 0.00 46 1008.2
20260504015142 52 276 0.9 2.6 0.00 0.00 0.00 45 1008.2
20260504014419 52 282 1.7 3.5 0.00 0.00 0.00 44 1008.2
20260504013656 52 223 1.7 3.5 0.00 0.00 0.00 44 1008.1
20260504013416 52 200 1.7 3.5 0.00 0.00 0.00 45 1008.0
20260504012656 52 242 0.9 1.7 0.00 0.00 0.00 48 1008.0
20260504012155 52 254 0.9 1.7 0.00 0.00 0.00 44 1007.9
20260504011917 52 208 0.0 1.7 0.00 0.00 0.00 43 1007.9
20260504011156 52 241 0.0 0.9 0.00 0.00 0.00 42 1007.8
20260504010655 53 0 0.0 1.7 0.00 0.00 0.00 42 1007.8
20260504010156 53 190 0.9 1.7 0.00 0.00 0.00 42 1007.7
20260504005656 53 200 0.9 1.7 0.00 0.00 0.00 42 1007.6
20260504005157 53 209 0.9 1.7 0.00 0.00 0.00 41 1007.6
20260504004656 53 212 0.0 1.7 0.00 0.00 0.00 42 1007.6
20260504004156 54 0 0.0 1.7 0.00 0.00 0.00 41 1007.5
20260504003653 54 224 0.9 1.7 0.00 0.00 0.00 41 1007.4
20260504003415 54 226 0.9 1.7 0.00 0.00 0.00 39 1007.3
20260504002651 55 211 0.0 1.7 0.00 0.00 0.00 38 1007.2
20260504002150 55 0 0.0 1.7 0.00 0.00 0.00 38 1007.2
20260504001648 55 208 0.0 1.7 0.00 0.00 0.00 37 1007.1
20260504001147 56 233 0.9 3.5 0.00 0.00 0.00 37 1007.1
20260504000912 56 0 1.7 3.5 0.00 0.00 0.00 36 1007.0
20260504000145 56 281 1.7 3.5 0.00 0.00 0.00 35 1006.9
20260503235645 56 297 0.9 2.6 0.00 0.00 0.00 35 1006.9
20260503235145 56 220 0.9 3.5 0.00 0.00 0.00 35 1006.9
20260503234903 57 263 0.9 4.3 0.00 0.00 0.00 34 1006.8
20260503234145 57 223 1.7 4.3 0.00 0.00 0.00 33 1006.8
20260503233646 57 241 0.9 4.3 0.00 0.00 0.00 33 1006.7
20260503233145 58 246 1.7 7.8 0.00 0.00 0.00 32 1006.6
20260503232645 58 307 1.7 7.8 0.00 0.00 0.00 32 1006.6
20260503232145 58 0 1.7 6.1 0.00 0.00 0.00 32 1006.5
20260503231645 58 251 1.7 5.2 0.00 0.00 0.00 32 1006.5
20260503231145 58 205 1.7 4.3 0.00 0.00 0.00 32 1006.4
20260503230644 58 34 1.7 6.1 0.00 0.00 0.00 32 1006.4
20260503230144 58 281 1.7 6.1 0.00 0.00 0.00 31 1006.4
20260503225644 59 71 1.7 5.2 0.00 0.00 0.00 30 1006.4
20260503225144 59 338 1.7 7.0 0.00 0.00 0.00 30 1006.4
20260503224644 59 38 2.6 7.8 0.00 0.00 0.00 30 1006.4
20260503224145 60 249 2.6 7.8 0.00 0.00 0.00 30 1006.4
20260503223645 60 246 1.7 7.8 0.00 0.00 0.00 30 1006.3
20260503223145 60 208 1.7 6.1 0.00 0.00 0.00 30 1006.3
20260503222644 60 215 1.7 7.0 0.00 0.00 0.00 29 1006.3
20260503222145 60 219 1.7 7.8 0.00 0.00 0.00 30 1006.3
20260503221645 60 37 1.7 7.8 0.00 0.00 0.00 30 1006.3
20260503221141 60 47 1.7 7.8 0.00 0.00 0.00 30 1006.2
20260503220640 60 18 2.6 7.8 0.00 0.00 0.00 29 1006.3
20260503220138 61 27 2.6 6.1 0.00 0.00 0.00 29 1006.2
20260503215635 61 241 2.6 7.8 0.00 0.00 0.00 30 1006.2
20260503215135 60 339 2.6 8.7 0.00 0.00 0.00 30 1006.3
20260503214854 60 304 4.3 8.7 0.00 0.00 0.00 29 1006.2
20260503214135 60 204 3.5 8.7 0.00 0.00 0.00 30 1006.1
20260503213635 60 233 2.6 7.8 0.00 0.00 0.00 30 1006.1
20260503213135 60 341 2.6 7.8 0.00 0.00 0.00 30 1006.0
20260503212636 60 45 2.6 8.7 0.00 0.00 0.00 31 1006.0
20260503212135 60 144 2.6 8.7 0.00 0.00 0.00 30 1006.0
20260503211635 60 349 1.7 7.8 0.00 0.00 0.00 30 1006.0
20260503211357 60 223 2.6 6.1 0.00 0.00 0.00 31 1006.0
20260503210635 60 40 2.6 6.1 0.00 0.00 0.00 31 1006.0
20260503210136 60 223 2.6 7.8 0.00 0.00 0.00 31 1006.1
20260503205632 60 343 2.6 8.7 0.00 0.00 0.00 31 1006.0
20260503205618 60 44 2.6 8.7 0.00 0.00 0.00 30 1006.0
20260503204629 60 343 2.6 7.8 0.00 0.00 0.00 31 1005.9
20260503204130 60 16 2.6 7.8 0.00 0.00 0.00 31 1005.9
20260503203629 59 353 2.6 6.1 0.00 0.00 0.00 32 1005.9
20260503203356 59 341 2.6 6.1 0.00 0.00 0.00 33 1006.0
20260503202630 59 27 2.6 7.8 0.00 0.00 0.00 32 1006.0
20260503202356 59 186 3.5 7.8 0.00 0.00 0.00 32 1006.1
20260503201630 59 276 2.6 7.8 0.00 0.00 0.00 32 1006.0
20260503201130 59 214 2.6 9.6 0.00 0.00 0.00 33 1006.1
20260503200630 59 329 3.5 9.6 0.00 0.00 0.00 32 1006.0
20260503200131 59 187 2.6 11.3 0.00 0.00 0.00 33 1006.1
20260503195631 59 269 3.5 11.3 0.00 0.00 0.00 34 1006.1
20260503195130 58 297 2.6 7.8 0.00 0.00 0.00 34 1006.3